Location: Weatherford
(35.5260°N, 98.7070°W)
Time: 12:43:51
(UTC-05:00)

Amateur Radio Satellites - All Passes

Search period start: 18 September 2014 12:13
Search period end: 19 September 2014 12:13
Location: Weatherford, 35.5260°N, 98.7070°W

Satellite Date Start Highest point End Downlink Frequencies (MHz)
Time Altitude Azimuth
Oscar 11 18 Sep 12:22:38 12:25:42 19° 292° (WNW) 12:28:44 145.825 FM, Beacon 2401.500 USB
RS-15 18 Sep 12:25:08 12:33:21 23° 34° (NE) 12:41:42 29.354 - 29.394 USB, Beacon 29.352 USB
Sapphire 18 Sep 12:48:44 12:53:50 44° 111° (ESE) 12:58:58 437.095 MHz 1200 baud AX-25 AFSK
JAS-1B 18 Sep 12:54:10 12:56:17 11° 58° (ENE) 12:58:19 435.800 - 435.900 CW/SSB
PCSat 18 Sep 13:15:33 13:20:57 87° 115° (ESE) 13:26:24 145.825 MHz
Oscar 16 18 Sep 13:26:58 13:31:05 24° 67° (ENE) 13:35:13 437.025 USB, Beacon 2401.1428
Oscar 10/S400 18 Sep 13:31:43 13:50:22 17° 156° (SSE) 14:02:10 145.825 - 145.975 CW/USB, Beacon 145.810 USB
AO-Echo 18 Sep 13:52:02 13:55:08 18° 67° (ENE) 13:58:12 ?
ITAMSAT 1 18 Sep 14:07:37 14:11:42 24° 67° (ENE) 14:15:48 435.822 SSB
Uribyol 2 18 Sep 14:11:50 14:16:12 29° 68° (ENE) 14:20:35 436.500 FM
Oscar 19 18 Sep 14:26:18 14:31:30 89° 256° (WSW) 14:36:43 437.125 CW, 437.150 USB
TMSAT-1 18 Sep 14:28:00 14:30:11 13° 62° (ENE) 14:32:22 436.925 FM
Sapphire 18 Sep 14:33:10 14:37:25 23° 307° (NW) 14:41:43 437.095 MHz 1200 baud AX-25 AFSK
RS-15 18 Sep 14:36:40 14:47:51 76° 59° (ENE) 14:59:31 29.354 - 29.394 USB, Beacon 29.352 USB
JAS-1B 18 Sep 14:37:01 14:45:51 67° 73° (ENE) 14:53:17 435.800 - 435.900 CW/SSB
AO-27 18 Sep 14:41:10 14:46:10 53° 73° (ENE) 14:51:12 436.795 MHz FM
PCSat 18 Sep 15:02:29 15:05:04 13° 313° (NW) 15:07:40 145.825 MHz
Oscar 16 18 Sep 15:05:30 15:10:13 35° 262° (W) 15:14:57 437.025 USB, Beacon 2401.1428
Gurwin Techsat 1B 18 Sep 15:26:18 15:31:32 67° 74° (ENE) 15:36:48 435.225 FM
AO-Echo 18 Sep 15:29:04 15:33:35 41° 261° (W) 15:38:02 ?
ITAMSAT 1 18 Sep 15:46:18 15:50:58 35° 262° (W) 15:55:41 435.822 SSB
Uribyol 2 18 Sep 15:51:07 15:55:33 29° 263° (W) 16:00:03 436.500 FM
TMSAT-1 18 Sep 16:04:09 16:09:25 73° 258° (WSW) 16:14:43 436.925 FM
AO-27 18 Sep 16:23:00 16:25:58 15° 267° (W) 16:28:56 436.795 MHz FM
AO-7 18 Sep 16:28:54 16:36:55 55° 67° (ENE) 16:44:55 29.400 - 29.500 MHz
JAS-1B 18 Sep 16:29:50 16:36:31 24° 264° (W) 16:42:32 435.800 - 435.900 CW/SSB
Uosat F 18 Sep 16:37:43 16:42:19 39° 71° (ENE) 16:46:57 435.120 FM
RS-15 18 Sep 16:50:38 16:59:08 26° 257° (WSW) 17:07:57 29.354 - 29.394 USB, Beacon 29.352 USB
Saudisat 1A 18 Sep 16:55:28 16:57:02 12° 107° (ESE) 16:58:36 436.775 MHz
Gurwin Techsat 1B 18 Sep 17:09:44 17:11:55 12° 269° (W) 17:14:06 435.225 FM
OPAL 18 Sep 17:38:07 17:42:28 27° 98° (E) 17:46:44 ?
Uosat F 18 Sep 18:17:35 18:21:12 20° 265° (W) 18:24:50 435.120 FM
AO-7 18 Sep 18:22:59 18:29:55 29° 263° (W) 18:36:55 29.400 - 29.500 MHz
JAS-2 18 Sep 18:30:56 18:36:15 66° 75° (ENE) 18:41:22 435.800 - 435.900 CW/SSB, 435.910 FM
Saudisat 1A 18 Sep 18:31:45 18:36:04 57° 302° (WNW) 18:40:26 436.775 MHz
Hamsat 18 Sep 18:32:03 18:36:20 60° 75° (ENE) 18:40:38 145.90 MHz
SO-67 18 Sep 19:15:37 19:18:07 19° 71° (ENE) 19:20:37 435.3500 MHz FM
KITSAT 1 18 Sep 19:16:16 19:22:59 30° 106° (ESE) 19:29:41 435.175 FM
OPAL 18 Sep 19:16:46 19:21:16 31° 293° (WNW) 19:25:43 ?
MaSat-1 18 Sep 19:40:43 19:44:14 45° 252° (WSW) 19:47:15 437.345 MHz
STRAND 1 18 Sep 19:55:27 20:00:16 40° 99° (E) 20:05:04 ?
JAS-2 18 Sep 20:20:18 20:21:46 11° 268° (W) 20:23:14 435.800 - 435.900 CW/SSB, 435.910 FM
HO-68 18 Sep 20:25:32 20:30:40 22° 60° (ENE) 20:35:47 435.675 MHz FM
SO-67 18 Sep 20:48:33 20:51:01 18° 265° (W) 20:53:30 435.3500 MHz FM
KITSAT 1 18 Sep 21:10:02 21:17:54 55° 303° (WNW) 21:25:49 435.175 FM
STRAND 1 18 Sep 21:35:22 21:39:09 21° 293° (WNW) 21:42:56 ?
Oscar 11 18 Sep 21:38:49 21:41:49 18° 68° (ENE) 21:44:49 145.825 FM, Beacon 2401.500 USB
Sapphire 18 Sep 21:40:17 21:44:19 21° 52° (NE) 21:48:20 437.095 MHz 1200 baud AX-25 AFSK
UKube-1 18 Sep 21:53:22 21:57:23 39° 72° (ENE) 22:01:26 145.840 MHz, 145.915 MHz
PCSat 18 Sep 22:06:47 22:11:47 36° 57° (ENE) 22:16:45 145.825 MHz
HO-68 18 Sep 22:10:39 22:17:43 66° 257° (WSW) 22:24:50 435.675 MHz FM
SO-50 18 Sep 22:13:04 22:15:51 16° 109° (ESE) 22:18:40 436.795 FM
FUNcube-1 18 Sep 23:00:32 23:04:49 61° 75° (ENE) 23:09:15 145.950 - 145.970 MHz USB
KITSAT 1 18 Sep 23:11:54 23:15:19 13° 326° (NW) 23:18:43 435.175 FM
Oscar 11 18 Sep 23:13:47 23:17:43 33° 262° (W) 23:21:41 145.825 FM, Beacon 2401.500 USB
Sapphire 18 Sep 23:22:46 23:28:01 52° 248° (WSW) 23:33:15 437.095 MHz 1200 baud AX-25 AFSK
UKube-1 18 Sep 23:31:14 23:33:43 15° 266° (W) 23:36:12 145.840 MHz, 145.915 MHz
PCSat 18 Sep 23:50:32 23:54:59 27° 253° (WSW) 23:59:25 145.825 MHz
SO-50 18 Sep 23:51:45 23:56:00 43° 304° (NW) 00:00:22 436.795 FM
UOSAT-12 18 Sep 23:56:05 23:58:46 15° 108° (ESE) 00:01:28 437.025 FM, 437.400 FM
AO-40 19 Sep 00:25:38 02:03:54 26° 226° (SW) 05:23:41 Beacon 2401.320
UOSAT-12 19 Sep 01:33:59 01:38:27 49° 303° (WNW) 01:43:01 437.025 FM, 437.400 FM
PANSAT 19 Sep 01:40:17 01:41:30 11° 159° (SSE) 01:42:43 not established
Oscar 10/S400 19 Sep 02:19:48 03:32:50 44° 230° (SW) 09:06:54 145.825 - 145.975 CW/USB, Beacon 145.810 USB
ITAMSAT 1 19 Sep 02:26:24 02:26:51 10° 91° (E) 02:27:18 435.822 SSB
JAS-1B 19 Sep 02:28:33 02:31:28 14° 92° (E) 02:34:25 435.800 - 435.900 CW/SSB
Uribyol 2 19 Sep 02:29:12 02:31:22 13° 92° (E) 02:33:32 436.500 FM
Oscar 19 19 Sep 02:41:17 02:46:09 41° 99° (E) 02:50:59 437.125 CW, 437.150 USB
RS-15 19 Sep 02:55:40 02:56:39 10° 96° (E) 02:57:38 29.354 - 29.394 USB, Beacon 29.352 USB
AO-27 19 Sep 02:57:49 03:02:03 25° 96° (E) 03:06:15 436.795 MHz FM
ISS 19 Sep 02:59:00 03:02:09 41° 133° (SE) 03:05:18 145.800 FM
Saudisat 1A 19 Sep 03:01:15 03:05:31 45° 57° (ENE) 03:09:44 436.775 MHz
KITSAT 1 19 Sep 03:14:42 03:16:23 11° 31° (NNE) 03:18:05 435.175 FM
PANSAT 19 Sep 03:17:58 03:21:05 24° 171° (S) 03:24:13 not established
Oscar 16 19 Sep 03:19:45 03:24:57 78° 285° (WNW) 03:30:04 437.025 USB, Beacon 2401.1428
AO-Echo 19 Sep 03:38:29 03:43:22 77° 102° (ESE) 03:48:22 ?
Gurwin Techsat 1B 19 Sep 03:45:56 03:50:44 34° 97° (E) 03:55:30 435.225 FM
ITAMSAT 1 19 Sep 04:01:37 04:06:50 77° 285° (WNW) 04:12:02 435.822 SSB
Uribyol 2 19 Sep 04:06:03 04:11:14 65° 286° (WNW) 04:16:24 436.500 FM
JAS-1B 19 Sep 04:17:01 04:22:37 57° 288° (WNW) 04:28:13 435.800 - 435.900 CW/SSB
Oscar 19 19 Sep 04:21:24 04:25:10 21° 294° (WNW) 04:28:55 437.125 CW, 437.150 USB
TMSAT-1 19 Sep 04:23:07 04:28:21 58° 101° (E) 04:33:33 436.925 FM
AO-7 19 Sep 04:35:20 04:41:02 20° 94° (E) 04:46:42 29.400 - 29.500 MHz
ISS 19 Sep 04:36:27 04:38:59 20° 329° (NNW) 04:41:31 145.800 FM
AO-27 19 Sep 04:36:53 04:41:33 34° 290° (WNW) 04:46:13 436.795 MHz FM
Saudisat 1A 19 Sep 04:42:10 04:44:41 15° 251° (WSW) 04:47:11 436.775 MHz
Uosat F 19 Sep 04:49:43 04:52:36 15° 93° (E) 04:55:28 435.120 FM
OPAL 19 Sep 04:49:53 04:54:33 36° 68° (ENE) 04:59:17 ?
RS-15 19 Sep 04:55:54 05:06:51 67° 114° (ESE) 05:17:36 29.354 - 29.394 USB, Beacon 29.352 USB
PANSAT 19 Sep 04:57:32 05:00:49 27° 184° (S) 05:04:07 not established
KITSAT 1 19 Sep 05:06:30 05:14:11 45° 55° (NE) 05:21:48 435.175 FM
AO-Echo 19 Sep 05:20:40 05:21:30 10° 297° (WNW) 05:22:21 ?
Gurwin Techsat 1B 19 Sep 05:26:10 05:30:30 26° 292° (WNW) 05:34:49 435.225 FM
TMSAT-1 19 Sep 06:04:37 06:07:44 16° 296° (WNW) 06:10:52 436.925 FM
Hamsat 19 Sep 06:22:43 06:24:42 13° 92° (E) 06:26:40 145.90 MHz
AO-7 19 Sep 06:26:10 06:34:26 75° 290° (WNW) 06:42:40 29.400 - 29.500 MHz
Uosat F 19 Sep 06:26:46 06:31:38 51° 287° (WNW) 06:36:29 435.120 FM
OPAL 19 Sep 06:29:19 06:33:27 24° 263° (W) 06:37:38 ?
PANSAT 19 Sep 06:38:00 06:40:29 17° 196° (SSW) 06:42:59 not established
KITSAT 1 19 Sep 07:02:10 07:09:22 37° 252° (WSW) 07:16:32 435.175 FM
STRAND 1 19 Sep 07:08:31 07:13:17 43° 71° (ENE) 07:18:04 ?
RS-15 19 Sep 07:10:14 07:19:54 34° 316° (NW) 07:29:35 29.354 - 29.394 USB, Beacon 29.352 USB
JAS-2 19 Sep 07:25:51 07:31:59 80° 103° (ESE) 07:38:56 435.800 - 435.900 CW/SSB, 435.910 FM
MaSat-1 19 Sep 07:49:51 07:50:47 11° 99° (E) 07:51:43 437.345 MHz
Hamsat 19 Sep 07:56:50 08:00:51 42° 286° (WNW) 08:04:48 145.90 MHz
SO-67 19 Sep 08:14:09 08:17:18 33° 98° (E) 08:20:26 435.3500 MHz FM
AO-7 19 Sep 08:21:49 08:25:49 15° 308° (NW) 08:29:49 29.400 - 29.500 MHz
SO-50 19 Sep 08:25:44 08:30:34 72° 60° (ENE) 08:35:25 436.795 FM
STRAND 1 19 Sep 08:49:07 08:52:37 19° 266° (W) 08:56:08 ?
JAS-2 19 Sep 09:13:15 09:16:31 15° 296° (WNW) 09:19:58 435.800 - 435.900 CW/SSB, 435.910 FM
MaSat-1 19 Sep 09:21:53 09:26:52 78° 293° (WNW) 09:31:53 437.345 MHz
ISS 19 Sep 09:30:39 09:32:59 18° 29° (NNE) 09:35:19 145.800 FM
RS-15 19 Sep 09:32:51 09:37:12 13° 349° (N) 09:41:35 29.354 - 29.394 USB, Beacon 29.352 USB
HO-68 19 Sep 09:42:16 09:48:17 28° 96° (E) 09:54:17 435.675 MHz FM
SO-67 19 Sep 09:48:57 09:49:58 11° 292° (WNW) 09:50:59 435.3500 MHz FM
UOSAT-12 19 Sep 10:06:19 10:11:00 61° 58° (ENE) 10:15:35 437.025 FM, 437.400 FM
SO-50 19 Sep 10:09:14 10:10:31 11° 254° (WSW) 10:11:47 436.795 FM
FUNcube-1 19 Sep 10:53:59 10:56:52 16° 93° (E) 10:59:42 145.950 - 145.970 MHz USB
Oscar 11 19 Sep 11:03:59 11:08:15 53° 100° (E) 11:12:28 145.825 FM, Beacon 2401.500 USB
ISS 19 Sep 11:06:40 11:09:54 51° 226° (SW) 11:13:08 145.800 FM
UKube-1 19 Sep 11:20:16 11:24:36 71° 285° (WNW) 11:28:56 145.840 MHz, 145.915 MHz
HO-68 19 Sep 11:29:19 11:36:07 48° 292° (WNW) 11:42:55 435.675 MHz FM
UOSAT-12 19 Sep 11:48:41 11:50:33 12° 253° (WSW) 11:52:25 437.025 FM, 437.400 FM
RS-15 19 Sep 11:49:16 11:56:22 18° 28° (NNE) 12:03:34 29.354 - 29.394 USB, Beacon 29.352 USB
